Time,TemperatureF,DewpointF,PressureIn,WindDirection,WindDirectionDegrees,WindSpeedMPH,WindSpeedGustMPH,Humidity,HourlyPrecipIn,Conditions,Clouds,dailyrainin,SolarRadiationWatts/m^2,SoftwareType,DateUTC
2013-02-02 00:00:00,42.5,40.9,30.40,ESE,112,2.0,2.0,94,0.00,,,0.00,0,Wunderground v.1.15,2013-02-02 08:00:00,
2013-02-02 00:05:00,42.5,40.9,30.40,ESE,109,1.0,3.0,94,0.00,,,0.00,0,Wunderground v.1.15,2013-02-02 08:05:00,
2013-02-02 00:10:00,42.5,41.2,30.40,East,84,2.0,5.0,95,0.00,,,0.00,0,Wunderground v.1.15,2013-02-02 08:10:00,
2013-02-02 00:15:00,42.5,40.9,30.40,ESE,119,2.0,5.0,94,0.00,,,0.00,0,Wunderground v.1.15,2013-02-02 08:15:00,
2013-02-02 00:20:00,42.4,40.8,30.40,ESE,119,0.0,2.0,94,0.00,,,0.00,0,Wunderground v.1.15,2013-02-02 08:20:00,
2013-02-02 00:25:00,42.4,40.8,30.40,ESE,119,0.0,2.0,94,0.00,,,0.00,0,Wunderground v.1.15,2013-02-02 08:25:00,
2013-02-02 00:30:00,42.4,40.8,30.40,ESE,119,2.0,2.0,94,0.00,,,0.00,0,Wunderground v.1.15,2013-02-02 08:30:00,
2013-02-02 00:35:00,42.4,41.1,30.41,ESE,119,0.0,2.0,95,0.00,,,0.00,0,Wunderground v.1.15,2013-02-02 08:35:00,
2013-02-02 00:40:00,42.4,41.1,30.41,ESE,119,0.0,1.0,95,0.00,,,0.00,0,Wunderground v.1.15,2013-02-02 08:40:00,
2013-02-02 00:45:00,42.5,41.2,30.41,East,92,1.0,3.0,95,0.00,,,0.00,0,Wunderground v.1.15,2013-02-02 08:45:00,
2013-02-02 00:50:00,42.5,41.2,30.41,ENE,63,2.0,3.0,95,0.00,,,0.00,0,Wunderground v.1.15,2013-02-02 08:50:00,
2013-02-02 00:55:00,42.6,41.3,30.41,East,82,1.0,4.0,95,0.00,,,0.00,0,Wunderground v.1.15,2013-02-02 08:55:00,
2013-02-02 01:00:00,42.6,41.3,30.41,ESE,103,1.0,3.0,95,0.00,,,0.00,0,Wunderground v.1.15,2013-02-02 09:00:00,
2013-02-02 01:05:00,42.7,41.4,30.40,ESE,103,2.0,3.0,95,0.00,,,0.00,0,Wunderground v.1.15,2013-02-02 09:05:00,
2013-02-02 01:10:00,42.7,41.4,30.41,ENE,61,1.0,4.0,95,0.00,,,0.00,0,Wunderground v.1.15,2013-02-02 09:10:00,
2013-02-02 01:15:00,42.8,41.5,30.41,East,80,3.0,4.0,95,0.00,,,0.00,0,Wunderground v.1.15,2013-02-02 09:15:00,
2013-02-02 01:20:00,42.9,41.6,30.40,East,96,2.0,3.0,95,0.00,,,0.00,0,Wunderground v.1.15,2013-02-02 09:20:00,
2013-02-02 01:25:00,42.9,41.6,30.40,East,94,2.0,3.0,95,0.00,,,0.00,0,Wunderground v.1.15,2013-02-02 09:25:00,
2013-02-02 01:30:00,42.9,41.6,30.40,ESE,121,3.0,5.0,95,0.00,,,0.00,0,Wunderground v.1.15,2013-02-02 09:30:00,
2013-02-02 01:35:00,42.9,41.6,30.41,ESE,112,2.0,5.0,95,0.00,,,0.00,0,Wunderground v.1.15,2013-02-02 09:35:00,
2013-02-02 01:40:00,42.9,41.6,30.41,ESE,112,3.0,3.0,95,0.00,,,0.00,0,Wunderground v.1.15,2013-02-02 09:40:00,
2013-02-02 01:45:00,42.9,41.6,30.41,East,90,2.0,4.0,95,0.00,,,0.00,0,Wunderground v.1.15,2013-02-02 09:45:00,
2013-02-02 01:50:00,43.0,41.7,30.41,NE,56,1.0,2.0,95,0.00,,,0.00,0,Wunderground v.1.15,2013-02-02 09:50:00,
2013-02-02 01:55:00,43.0,41.7,30.41,ESE,104,1.0,5.0,95,0.00,,,0.00,0,Wunderground v.1.15,2013-02-02 09:55:00,
2013-02-02 02:00:00,42.9,41.6,30.41,East,98,0.0,1.0,95,0.00,,,0.00,0,Wunderground v.1.15,2013-02-02 10:00:00,
2013-02-02 02:05:00,42.9,41.6,30.41,East,98,2.0,2.0,95,0.00,,,0.00,0,Wunderground v.1.15,2013-02-02 10:05:00,
2013-02-02 02:10:00,42.9,41.6,30.41,East,101,1.0,2.0,95,0.00,,,0.00,0,Wunderground v.1.15,2013-02-02 10:10:00,
2013-02-02 02:15:00,42.9,41.6,30.41,East,88,0.0,5.0,95,0.00,,,0.00,0,Wunderground v.1.15,2013-02-02 10:15:00,
2013-02-02 02:20:00,42.9,41.6,30.41,East,84,2.0,3.0,95,0.00,,,0.00,0,Wunderground v.1.15,2013-02-02 10:20:00,
2013-02-02 02:25:00,42.9,41.6,30.41,ENE,65,1.0,3.0,95,0.00,,,0.00,0,Wunderground v.1.15,2013-02-02 10:25:00,
2013-02-02 02:30:00,42.9,41.6,30.41,ENE,68,1.0,2.0,95,0.00,,,0.00,0,Wunderground v.1.15,2013-02-02 10:30:00,
2013-02-02 02:35:00,42.8,41.5,30.41,East,92,1.0,5.0,95,0.00,,,0.00,0,Wunderground v.1.15,2013-02-02 10:35:00,
2013-02-02 02:40:00,42.8,41.5,30.40,ESE,104,1.0,2.0,95,0.00,,,0.00,0,Wunderground v.1.15,2013-02-02 10:40:00,
2013-02-02 02:45:00,42.7,41.4,30.41,ESE,104,1.0,4.0,95,0.00,,,0.00,0,Wunderground v.1.15,2013-02-02 10:45:00,
2013-02-02 02:50:00,42.7,41.1,30.41,NE,53,1.0,2.0,94,0.00,,,0.00,0,Wunderground v.1.15,2013-02-02 10:50:00,
2013-02-02 02:55:00,42.6,41.0,30.40,NNE,13,1.0,5.0,94,0.00,,,0.00,0,Wunderground v.1.15,2013-02-02 10:55:00,
2013-02-02 03:00:00,42.5,40.9,30.40,NNE,27,1.0,2.0,94,0.00,,,0.00,0,Wunderground v.1.15,2013-02-02 11:00:00,
2013-02-02 03:05:00,42.3,40.7,30.40,NE,54,2.0,4.0,94,0.00,,,0.00,0,Wunderground v.1.15,2013-02-02 11:05:00,
2013-02-02 03:10:00,42.3,40.7,30.40,NE,49,1.0,2.0,94,0.00,,,0.00,0,Wunderground v.1.15,2013-02-02 11:10:00,
2013-02-02 03:15:00,42.2,40.6,30.40,NE,48,2.0,4.0,94,0.00,,,0.00,0,Wunderground v.1.15,2013-02-02 11:15:00,
2013-02-02 03:20:00,42.2,40.6,30.40,ENE,61,2.0,2.0,94,0.00,,,0.00,0,Wunderground v.1.15,2013-02-02 11:20:00,
2013-02-02 03:25:00,42.1,40.8,30.40,ESE,106,2.0,5.0,95,0.00,,,0.00,0,Wunderground v.1.15,2013-02-02 11:25:00,
2013-02-02 03:30:00,42.0,40.7,30.39,ESE,106,2.0,3.0,95,0.00,,,0.00,0,Wunderground v.1.15,2013-02-02 11:30:00,
2013-02-02 03:35:00,42.0,40.7,30.39,ESE,105,2.0,4.0,95,0.00,,,0.00,0,Wunderground v.1.15,2013-02-02 11:35:00,
2013-02-02 03:40:00,42.0,40.7,30.39,ESE,103,0.0,2.0,95,0.00,,,0.00,0,Wunderground v.1.15,2013-02-02 11:40:00,
2013-02-02 03:45:00,42.0,40.7,30.39,East,98,1.0,3.0,95,0.00,,,0.00,0,Wunderground v.1.15,2013-02-02 11:45:00,
2013-02-02 03:50:00,42.1,40.8,30.39,ENE,76,2.0,4.0,95,0.00,,,0.00,0,Wunderground v.1.15,2013-02-02 11:50:00,
2013-02-02 03:55:00,42.0,40.7,30.39,East,80,2.0,4.0,95,0.00,,,0.00,0,Wunderground v.1.15,2013-02-02 11:55:00,
2013-02-02 04:00:00,42.1,40.8,30.38,ENE,72,0.0,1.0,95,0.00,,,0.00,0,Wunderground v.1.15,2013-02-02 12:00:00,
2013-02-02 04:05:00,42.1,40.8,30.38,NE,41,1.0,4.0,95,0.00,,,0.00,0,Wunderground v.1.15,2013-02-02 12:05:00,
2013-02-02 04:10:00,42.1,40.8,30.38,East,83,3.0,3.0,95,0.00,,,0.00,0,Wunderground v.1.15,2013-02-02 12:10:00,
2013-02-02 04:15:00,42.1,40.8,30.39,NE,34,0.0,5.0,95,0.00,,,0.00,0,Wunderground v.1.15,2013-02-02 12:15:00,
2013-02-02 04:20:00,42.0,40.7,30.38,NNE,28,2.0,2.0,95,0.00,,,0.00,0,Wunderground v.1.15,2013-02-02 12:20:00,
2013-02-02 04:25:00,42.0,40.7,30.38,NNE,28,0.0,2.0,95,0.00,,,0.00,0,Wunderground v.1.15,2013-02-02 12:25:00,
2013-02-02 04:30:00,41.9,40.6,30.38,East,101,2.0,2.0,95,0.00,,,0.00,0,Wunderground v.1.15,2013-02-02 12:30:00,
2013-02-02 04:35:00,41.9,40.6,30.38,ENE,71,1.0,4.0,95,0.00,,,0.00,0,Wunderground v.1.15,2013-02-02 12:35:00,
2013-02-02 04:40:00,41.8,40.2,30.38,East,96,1.0,1.0,94,0.00,,,0.00,0,Wunderground v.1.15,2013-02-02 12:40:00,
2013-02-02 04:45:00,41.6,40.0,30.38,East,82,0.0,3.0,94,0.00,,,0.00,0,Wunderground v.1.15,2013-02-02 12:45:00,
2013-02-02 04:50:00,41.6,40.0,30.38,ENE,73,0.0,1.0,94,0.00,,,0.00,0,Wunderground v.1.15,2013-02-02 12:50:00,
2013-02-02 04:55:00,41.6,40.0,30.38,East,88,2.0,3.0,94,0.00,,,0.00,0,Wunderground v.1.15,2013-02-02 12:55:00,
2013-02-02 05:00:00,41.5,39.9,30.38,East,90,1.0,1.0,94,0.00,,,0.00,0,Wunderground v.1.15,2013-02-02 13:00:00,
2013-02-02 05:05:00,41.5,39.9,30.37,East,90,1.0,2.0,94,0.00,,,0.00,0,Wunderground v.1.15,2013-02-02 13:05:00,
2013-02-02 05:10:00,41.5,39.9,30.37,East,90,1.0,1.0,94,0.00,,,0.00,0,Wunderground v.1.15,2013-02-02 13:10:00,
2013-02-02 05:15:00,41.4,39.8,30.37,East,90,0.0,2.0,94,0.00,,,0.00,0,Wunderground v.1.15,2013-02-02 13:15:00,
2013-02-02 05:20:00,41.4,39.8,30.37,East,90,1.0,1.0,94,0.00,,,0.00,0,Wunderground v.1.15,2013-02-02 13:20:00,
2013-02-02 05:25:00,41.3,39.7,30.37,East,90,2.0,3.0,94,0.00,,,0.00,0,Wunderground v.1.15,2013-02-02 13:25:00,
2013-02-02 05:30:00,41.3,39.7,30.36,East,92,1.0,1.0,94,0.00,,,0.00,0,Wunderground v.1.15,2013-02-02 13:30:00,
2013-02-02 05:35:00,41.2,39.6,30.37,ENE,67,1.0,4.0,94,0.00,,,0.00,0,Wunderground v.1.15,2013-02-02 13:35:00,
2013-02-02 05:40:00,41.3,39.7,30.37,ENE,66,2.0,4.0,94,0.00,,,0.00,0,Wunderground v.1.15,2013-02-02 13:40:00,
2013-02-02 05:45:00,41.1,39.5,30.36,East,101,3.0,6.0,94,0.00,,,0.00,0,Wunderground v.1.15,2013-02-02 13:45:00,
2013-02-02 05:50:00,41.0,39.4,30.36,ESE,106,0.0,6.0,94,0.00,,,0.00,0,Wunderground v.1.15,2013-02-02 13:50:00,
2013-02-02 05:55:00,41.0,39.4,30.36,ESE,106,1.0,2.0,94,0.00,,,0.00,0,Wunderground v.1.15,2013-02-02 13:55:00,
2013-02-02 06:00:00,41.0,39.4,30.36,ESE,109,2.0,4.0,94,0.00,,,0.00,0,Wunderground v.1.15,2013-02-02 14:00:00,
2013-02-02 06:05:00,40.9,39.6,30.36,ESE,112,0.0,3.0,95,0.00,,,0.00,0,Wunderground v.1.15,2013-02-02 14:05:00,
2013-02-02 06:10:00,40.9,39.6,30.36,ESE,112,1.0,4.0,95,0.00,,,0.00,0,Wunderground v.1.15,2013-02-02 14:10:00,
2013-02-02 06:15:00,40.8,39.5,30.36,ESE,111,5.0,5.0,95,0.00,,,0.00,0,Wunderground v.1.15,2013-02-02 14:15:00,
2013-02-02 06:20:00,40.6,39.0,30.36,ESE,116,2.0,7.0,94,0.00,,,0.00,0,Wunderground v.1.15,2013-02-02 14:20:00,
2013-02-02 06:25:00,40.5,38.9,30.36,ESE,116,0.0,4.0,94,0.00,,,0.00,0,Wunderground v.1.15,2013-02-02 14:25:00,
2013-02-02 06:30:00,40.5,39.2,30.36,East,92,2.0,4.0,95,0.00,,,0.00,0,Wunderground v.1.15,2013-02-02 14:30:00,
2013-02-02 06:35:00,40.5,39.2,30.36,NE,38,0.0,4.0,95,0.00,,,0.00,0,Wunderground v.1.15,2013-02-02 14:35:00,
2013-02-02 06:40:00,40.4,39.1,30.36,NE,53,0.0,5.0,95,0.00,,,0.00,0,Wunderground v.1.15,2013-02-02 14:40:00,
2013-02-02 06:45:00,40.4,39.1,30.35,East,91,1.0,5.0,95,0.00,,,0.00,0,Wunderground v.1.15,2013-02-02 14:45:00,
2013-02-02 06:50:00,40.3,39.0,30.36,East,87,3.0,5.0,95,0.00,,,0.00,0,Wunderground v.1.15,2013-02-02 14:50:00,
2013-02-02 06:55:00,40.1,38.8,30.36,ESE,107,2.0,5.0,95,0.00,,,0.00,0,Wunderground v.1.15,2013-02-02 14:55:00,
2013-02-02 07:00:00,40.0,38.7,30.36,ESE,103,2.0,5.0,95,0.00,,,0.00,0,Wunderground v.1.15,2013-02-02 15:00:00,
2013-02-02 07:05:00,39.9,38.6,30.36,ESE,108,3.0,4.0,95,0.00,,,0.00,0,Wunderground v.1.15,2013-02-02 15:05:00,
2013-02-02 07:10:00,39.8,38.5,30.36,ESE,108,1.0,4.0,95,0.00,,,0.00,0,Wunderground v.1.15,2013-02-02 15:10:00,
2013-02-02 07:15:00,39.8,38.5,30.35,ESE,108,1.0,3.0,95,0.00,,,0.00,0,Wunderground v.1.15,2013-02-02 15:15:00,
2013-02-02 07:20:00,39.7,38.4,30.35,ESE,108,0.0,3.0,95,0.00,,,0.00,0,Wunderground v.1.15,2013-02-02 15:20:00,
2013-02-02 07:25:00,39.7,38.4,30.35,ESE,107,0.0,3.0,95,0.00,,,0.00,0,Wunderground v.1.15,2013-02-02 15:25:00,
2013-02-02 07:30:00,39.8,38.5,30.35,ESE,107,0.0,3.0,95,0.00,,,0.00,0,Wunderground v.1.15,2013-02-02 15:30:00,
2013-02-02 07:35:00,39.8,38.5,30.35,ESE,107,0.0,2.0,95,0.00,,,0.00,0,Wunderground v.1.15,2013-02-02 15:35:00,
2013-02-02 07:40:00,39.8,38.5,30.35,ESE,105,1.0,3.0,95,0.00,,,0.00,0,Wunderground v.1.15,2013-02-02 15:40:00,
2013-02-02 07:45:00,39.8,38.5,30.35,ESE,104,0.0,3.0,95,0.00,,,0.00,0,Wunderground v.1.15,2013-02-02 15:45:00,
2013-02-02 07:50:00,39.8,38.5,30.35,ESE,104,1.0,3.0,95,0.00,,,0.00,5,Wunderground v.1.15,2013-02-02 15:50:00,
2013-02-02 07:55:00,39.9,38.9,30.35,ESE,104,1.0,2.0,96,0.00,,,0.00,7,Wunderground v.1.15,2013-02-02 15:55:00,
2013-02-02 08:00:00,39.9,38.9,30.35,ESE,104,0.0,2.0,96,0.00,,,0.00,9,Wunderground v.1.15,2013-02-02 16:00:00,
2013-02-02 08:05:00,39.9,38.9,30.35,ESE,104,0.0,1.0,96,0.00,,,0.00,11,Wunderground v.1.15,2013-02-02 16:05:00,
2013-02-02 08:10:00,40.0,39.0,30.35,East,98,0.0,3.0,96,0.00,,,0.00,12,Wunderground v.1.15,2013-02-02 16:10:00,
2013-02-02 08:15:00,40.2,39.2,30.35,East,98,1.0,3.0,96,0.00,,,0.00,14,Wunderground v.1.15,2013-02-02 16:15:00,
2013-02-02 08:20:00,40.2,39.2,30.35,ESE,103,3.0,3.0,96,0.00,,,0.00,16,Wunderground v.1.15,2013-02-02 16:20:00,
2013-02-02 08:25:00,40.1,39.1,30.35,ESE,103,0.0,3.0,96,0.00,,,0.00,18,Wunderground v.1.15,2013-02-02 16:25:00,
2013-02-02 08:30:00,40.0,39.0,30.35,East,98,0.0,3.0,96,0.00,,,0.00,21,Wunderground v.1.15,2013-02-02 16:30:00,
2013-02-02 08:35:00,40.0,39.0,30.35,East,94,1.0,3.0,96,0.00,,,0.00,21,Wunderground v.1.15,2013-02-02 16:35:00,
2013-02-02 08:40:00,40.0,39.0,30.35,East,95,1.0,3.0,96,0.00,,,0.00,26,Wunderground v.1.15,2013-02-02 16:40:00,
2013-02-02 08:45:00,40.0,39.0,30.36,East,100,3.0,5.0,96,0.00,,,0.00,26,Wunderground v.1.15,2013-02-02 16:45:00,
2013-02-02 08:50:00,39.8,38.8,30.36,East,100,1.0,5.0,96,0.00,,,0.00,32,Wunderground v.1.15,2013-02-02 16:50:00,
2013-02-02 08:55:00,39.8,38.8,30.35,East,100,1.0,3.0,96,0.00,,,0.00,37,Wunderground v.1.15,2013-02-02 16:55:00,
2013-02-02 09:00:00,39.8,38.8,30.35,ESE,103,1.0,3.0,96,0.00,,,0.00,46,Wunderground v.1.15,2013-02-02 17:00:00,
2013-02-02 09:04:00,39.8,38.8,30.35,ESE,115,1.0,5.0,96,0.00,,,0.00,46,Wunderground v.1.15,2013-02-02 17:04:00,
2013-02-02 09:09:00,39.7,38.7,30.35,ESE,115,1.0,5.0,96,0.00,,,0.00,53,Wunderground v.1.15,2013-02-02 17:09:00,
2013-02-02 09:14:00,39.8,38.8,30.35,ESE,115,1.0,2.0,96,0.00,,,0.00,56,Wunderground v.1.15,2013-02-02 17:14:00,
2013-02-02 09:19:00,39.9,38.9,30.35,ESE,115,0.0,3.0,96,0.00,,,0.00,54,Wunderground v.1.15,2013-02-02 17:19:00,
2013-02-02 09:24:00,40.0,39.0,30.35,ESE,115,0.0,1.0,96,0.00,,,0.00,58,Wunderground v.1.15,2013-02-02 17:24:00,
2013-02-02 09:29:00,40.1,39.1,30.35,ESE,115,1.0,2.0,96,0.00,,,0.00,56,Wunderground v.1.15,2013-02-02 17:29:00,
2013-02-02 09:34:00,40.2,39.2,30.35,ESE,119,0.0,4.0,96,0.00,,,0.00,53,Wunderground v.1.15,2013-02-02 17:34:00,
2013-02-02 09:39:00,40.2,39.2,30.35,ESE,119,0.0,4.0,96,0.00,,,0.00,53,Wunderground v.1.15,2013-02-02 17:39:00,
2013-02-02 09:44:00,40.2,39.2,30.36,SE,130,2.0,3.0,96,0.00,,,0.00,54,Wunderground v.1.15,2013-02-02 17:44:00,
2013-02-02 09:49:00,40.2,39.2,30.36,SE,144,0.0,3.0,96,0.00,,,0.00,60,Wunderground v.1.15,2013-02-02 17:49:00,
2013-02-02 09:54:00,40.2,39.2,30.36,North,5,2.0,5.0,96,0.00,,,0.00,69,Wunderground v.1.15,2013-02-02 17:54:00,
2013-02-02 09:59:00,40.4,39.4,30.36,ENE,62,3.0,5.0,96,0.00,,,0.00,74,Wunderground v.1.15,2013-02-02 17:59:00,
2013-02-02 10:04:00,40.4,39.4,30.35,ENE,63,1.0,2.0,96,0.00,,,0.00,76,Wunderground v.1.15,2013-02-02 18:04:00,
2013-02-02 10:09:00,40.5,39.4,30.35,ENE,74,0.0,2.0,96,0.00,,,0.00,77,Wunderground v.1.15,2013-02-02 18:09:00,
2013-02-02 10:14:00,40.6,39.5,30.35,East,86,1.0,2.0,96,0.00,,,0.00,77,Wunderground v.1.15,2013-02-02 18:14:00,
2013-02-02 10:19:00,40.7,39.6,30.35,ENE,60,0.0,3.0,96,0.00,,,0.00,83,Wunderground v.1.15,2013-02-02 18:19:00,
2013-02-02 10:24:00,40.8,39.7,30.35,ENE,60,1.0,2.0,96,0.00,,,0.00,95,Wunderground v.1.15,2013-02-02 18:24:00,
2013-02-02 10:29:00,40.9,39.8,30.35,NW,308,0.0,3.0,96,0.00,,,0.00,90,Wunderground v.1.15,2013-02-02 18:29:00,
2013-02-02 10:34:00,40.9,39.6,30.35,NW,308,2.0,3.0,95,0.00,,,0.00,95,Wunderground v.1.15,2013-02-02 18:34:00,
2013-02-02 10:39:00,41.0,39.7,30.35,ENE,59,1.0,3.0,95,0.00,,,0.00,104,Wunderground v.1.15,2013-02-02 18:39:00,
2013-02-02 10:44:00,41.1,39.8,30.35,East,94,2.0,3.0,95,0.00,,,0.00,102,Wunderground v.1.15,2013-02-02 18:44:00,
2013-02-02 10:49:00,41.2,39.9,30.35,East,101,0.0,3.0,95,0.00,,,0.00,111,Wunderground v.1.15,2013-02-02 18:49:00,
2013-02-02 10:54:00,41.4,40.1,30.35,ESE,111,2.0,3.0,95,0.00,,,0.00,109,Wunderground v.1.15,2013-02-02 18:54:00,
2013-02-02 10:59:00,41.5,39.9,30.35,SE,132,1.0,3.0,94,0.00,,,0.00,104,Wunderground v.1.15,2013-02-02 18:59:00,
2013-02-02 11:04:00,41.3,39.7,30.35,SE,132,1.0,3.0,94,0.00,,,0.00,100,Wunderground v.1.15,2013-02-02 19:04:00,
2013-02-02 11:09:00,41.3,39.7,30.34,ENE,63,1.0,3.0,94,0.00,,,0.00,123,Wunderground v.1.15,2013-02-02 19:09:00,
2013-02-02 11:14:00,41.6,40.0,30.34,ENE,63,2.0,3.0,94,0.00,,,0.00,142,Wunderground v.1.15,2013-02-02 19:14:00,
2013-02-02 11:19:00,41.8,39.9,30.34,ENE,63,0.0,3.0,93,0.00,,,0.00,134,Wunderground v.1.15,2013-02-02 19:19:00,
2013-02-02 11:24:00,41.8,39.9,30.34,North,355,2.0,3.0,93,0.00,,,0.00,137,Wunderground v.1.15,2013-02-02 19:24:00,
2013-02-02 11:29:00,41.7,39.5,30.34,North,11,1.0,3.0,92,0.00,,,0.00,146,Wunderground v.1.15,2013-02-02 19:29:00,
2013-02-02 11:34:00,41.7,39.5,30.34,North,355,2.0,3.0,92,0.00,,,0.00,135,Wunderground v.1.15,2013-02-02 19:34:00,
2013-02-02 11:39:00,41.9,39.7,30.34,North,355,1.0,3.0,92,0.00,,,0.00,137,Wunderground v.1.15,2013-02-02 19:39:00,
2013-02-02 11:44:00,42.0,39.8,30.34,North,355,1.0,3.0,92,0.00,,,0.00,139,Wunderground v.1.15,2013-02-02 19:44:00,
2013-02-02 11:49:00,42.2,40.0,30.34,North,355,0.0,3.0,92,0.00,,,0.00,137,Wunderground v.1.15,2013-02-02 19:49:00,
2013-02-02 11:54:00,43.1,40.9,30.33,North,350,2.0,3.0,92,0.00,,,0.00,139,Wunderground v.1.15,2013-02-02 19:54:00,
2013-02-02 11:59:00,43.4,40.4,30.33,North,350,2.0,3.0,89,0.00,,,0.00,128,Wunderground v.1.15,2013-02-02 19:59:00,
2013-02-02 12:04:00,42.8,40.1,30.33,North,350,1.0,3.0,90,0.00,,,0.00,132,Wunderground v.1.15,2013-02-02 20:04:00,
2013-02-02 12:09:00,42.9,40.2,30.33,North,350,2.0,3.0,90,0.00,,,0.00,141,Wunderground v.1.15,2013-02-02 20:09:00,
2013-02-02 12:14:00,43.0,40.3,30.33,NNW,331,0.0,5.0,90,0.00,,,0.00,148,Wunderground v.1.15,2013-02-02 20:14:00,
2013-02-02 12:19:00,43.2,40.5,30.32,NE,34,2.0,5.0,90,0.00,,,0.00,139,Wunderground v.1.15,2013-02-02 20:19:00,
2013-02-02 12:24:00,43.4,40.4,30.33,North,355,2.0,6.0,89,0.00,,,0.00,139,Wunderground v.1.15,2013-02-02 20:24:00,
2013-02-02 12:29:00,43.5,40.5,30.32,NNE,26,4.0,6.0,89,0.00,,,0.00,132,Wunderground v.1.15,2013-02-02 20:29:00,
2013-02-02 12:34:00,43.4,40.1,30.32,NNE,22,3.0,6.0,88,0.00,,,0.00,134,Wunderground v.1.15,2013-02-02 20:34:00,
2013-02-02 12:39:00,43.1,40.1,30.32,NNE,33,2.0,6.0,89,0.00,,,0.00,162,Wunderground v.1.15,2013-02-02 20:39:00,
2013-02-02 12:44:00,43.1,40.1,30.32,ENE,57,1.0,3.0,89,0.00,,,0.00,146,Wunderground v.1.15,2013-02-02 20:44:00,
2013-02-02 12:49:00,42.9,39.9,30.32,ENE,69,0.0,5.0,89,0.00,,,0.00,162,Wunderground v.1.15,2013-02-02 20:49:00,
2013-02-02 12:54:00,43.3,40.0,30.31,NE,56,2.0,3.0,88,0.00,,,0.00,174,Wunderground v.1.15,2013-02-02 20:54:00,
2013-02-02 12:59:00,43.2,39.9,30.31,East,90,1.0,5.0,88,0.00,,,0.00,162,Wunderground v.1.15,2013-02-02 20:59:00,
2013-02-02 13:04:00,43.3,40.0,30.31,ENE,65,2.0,4.0,88,0.00,,,0.00,141,Wunderground v.1.15,2013-02-02 21:04:00,
2013-02-02 13:09:00,43.1,39.8,30.31,East,90,0.0,4.0,88,0.00,,,0.00,149,Wunderground v.1.15,2013-02-02 21:09:00,
2013-02-02 13:14:00,43.4,40.4,30.31,East,90,0.0,2.0,89,0.00,,,0.00,165,Wunderground v.1.15,2013-02-02 21:14:00,
2013-02-02 13:19:00,43.4,40.1,30.31,East,84,0.0,3.0,88,0.00,,,0.00,137,Wunderground v.1.15,2013-02-02 21:19:00,
2013-02-02 13:24:00,43.6,40.3,30.31,NE,45,0.0,3.0,88,0.00,,,0.00,148,Wunderground v.1.15,2013-02-02 21:24:00,
2013-02-02 13:29:00,43.6,40.3,30.31,ESE,117,0.0,3.0,88,0.00,,,0.00,139,Wunderground v.1.15,2013-02-02 21:29:00,
2013-02-02 13:34:00,43.6,40.6,30.31,ESE,117,1.0,3.0,89,0.00,,,0.00,125,Wunderground v.1.15,2013-02-02 21:34:00,
2013-02-02 13:39:00,43.4,40.4,30.31,ESE,117,0.0,3.0,89,0.00,,,0.00,139,Wunderground v.1.15,2013-02-02 21:39:00,
2013-02-02 13:44:00,43.7,40.7,30.31,SE,125,2.0,3.0,89,0.00,,,0.00,127,Wunderground v.1.15,2013-02-02 21:44:00,
2013-02-02 13:49:00,44.3,41.0,30.31,NNE,22,1.0,5.0,88,0.00,,,0.00,123,Wunderground v.1.15,2013-02-02 21:49:00,
2013-02-02 13:54:00,44.5,40.9,30.31,NNW,340,3.0,4.0,87,0.00,,,0.00,118,Wunderground v.1.15,2013-02-02 21:54:00,
2013-02-02 13:59:00,44.0,40.4,30.31,WNW,296,0.0,5.0,87,0.00,,,0.00,114,Wunderground v.1.15,2013-02-02 21:59:00,
2013-02-02 14:04:00,44.2,40.6,30.31,NE,40,4.0,5.0,87,0.00,,,0.00,111,Wunderground v.1.15,2013-02-02 22:04:00,
2013-02-02 14:09:00,44.0,40.1,30.31,NE,35,1.0,5.0,86,0.00,,,0.00,107,Wunderground v.1.15,2013-02-02 22:09:00,
2013-02-02 14:14:00,43.5,39.9,30.30,ENE,60,0.0,3.0,87,0.00,,,0.00,107,Wunderground v.1.15,2013-02-02 22:14:00,
2013-02-02 14:19:00,43.7,40.4,30.30,ENE,72,2.0,3.0,88,0.00,,,0.00,100,Wunderground v.1.15,2013-02-02 22:19:00,
2013-02-02 14:24:00,44.1,40.5,30.30,ESE,110,2.0,3.0,87,0.00,,,0.00,97,Wunderground v.1.15,2013-02-02 22:24:00,
2013-02-02 14:29:00,43.9,40.6,30.30,WSW,243,1.0,3.0,88,0.00,,,0.00,93,Wunderground v.1.15,2013-02-02 22:29:00,
2013-02-02 14:34:00,44.2,40.6,30.30,WSW,244,2.0,3.0,87,0.00,,,0.00,102,Wunderground v.1.15,2013-02-02 22:34:00,
2013-02-02 14:39:00,44.0,40.4,30.30,WSW,248,3.0,5.0,87,0.00,,,0.00,100,Wunderground v.1.15,2013-02-02 22:39:00,
2013-02-02 14:44:00,43.8,40.5,30.30,WSW,248,3.0,5.0,88,0.00,,,0.00,105,Wunderground v.1.15,2013-02-02 22:44:00,
2013-02-02 14:49:00,43.8,40.2,30.30,WSW,256,2.0,6.0,87,0.00,,,0.00,105,Wunderground v.1.15,2013-02-02 22:49:00,
2013-02-02 14:54:00,44.0,40.7,30.30,WSW,256,1.0,3.0,88,0.00,,,0.00,118,Wunderground v.1.15,2013-02-02 22:54:00,
2013-02-02 14:59:00,43.8,40.2,30.30,West,267,0.0,3.0,87,0.00,,,0.00,91,Wunderground v.1.15,2013-02-02 22:59:00,
2013-02-02 15:04:00,44.1,40.5,30.29,West,263,1.0,2.0,87,0.00,,,0.00,98,Wunderground v.1.15,2013-02-02 23:04:00,
2013-02-02 15:09:00,44.2,40.6,30.29,WSW,254,3.0,6.0,87,0.00,,,0.00,76,Wunderground v.1.15,2013-02-02 23:09:00,
2013-02-02 15:14:00,43.9,40.6,30.30,South,188,7.0,8.0,88,0.00,,,0.00,69,Wunderground v.1.15,2013-02-02 23:14:00,
2013-02-02 15:19:00,43.7,40.7,30.29,SSE,163,2.0,8.0,89,0.00,,,0.00,72,Wunderground v.1.15,2013-02-02 23:19:00,
2013-02-02 15:24:00,43.4,40.4,30.30,SW,217,2.0,6.0,89,0.00,,,0.00,62,Wunderground v.1.15,2013-02-02 23:24:00,
2013-02-02 15:29:00,43.3,40.3,30.30,South,178,1.0,8.0,89,0.00,,,0.00,56,Wunderground v.1.15,2013-02-02 23:29:00,
2013-02-02 15:34:00,43.5,40.8,30.29,South,177,1.0,4.0,90,0.00,,,0.00,67,Wunderground v.1.15,2013-02-02 23:34:00,
2013-02-02 15:39:00,43.8,40.5,30.29,South,169,3.0,4.0,88,0.00,,,0.00,63,Wunderground v.1.15,2013-02-02 23:39:00,
2013-02-02 15:44:00,43.4,40.4,30.29,WSW,257,3.0,7.0,89,0.00,,,0.00,54,Wunderground v.1.15,2013-02-02 23:44:00,
2013-02-02 15:49:00,43.4,40.4,30.29,WSW,244,2.0,9.0,89,0.00,,,0.00,51,Wunderground v.1.15,2013-02-02 23:49:00,
2013-02-02 15:54:00,43.4,40.4,30.29,SW,223,1.0,6.0,89,0.00,,,0.00,51,Wunderground v.1.15,2013-02-02 23:54:00,
2013-02-02 15:59:00,43.3,40.3,30.29,WSW,255,5.0,6.0,89,0.00,,,0.00,49,Wunderground v.1.15,2013-02-02 23:59:00,
2013-02-02 16:04:00,43.3,40.3,30.29,SSW,213,2.0,5.0,89,0.00,,,0.00,39,Wunderground v.1.15,2013-02-03 00:04:00,
2013-02-02 16:09:00,43.3,40.3,30.29,West,275,7.0,8.0,89,0.00,,,0.00,39,Wunderground v.1.15,2013-02-03 00:09:00,
2013-02-02 16:14:00,43.2,40.2,30.29,WSW,249,2.0,7.0,89,0.00,,,0.00,33,Wunderground v.1.15,2013-02-03 00:14:00,
2013-02-02 16:19:00,43.0,40.0,30.28,South,177,1.0,7.0,89,0.00,,,0.00,32,Wunderground v.1.15,2013-02-03 00:19:00,
2013-02-02 16:24:00,43.0,40.0,30.28,SW,229,5.0,6.0,89,0.00,,,0.00,25,Wunderground v.1.15,2013-02-03 00:24:00,
2013-02-02 16:29:00,43.0,40.0,30.28,SSW,204,2.0,6.0,89,0.00,,,0.00,21,Wunderground v.1.15,2013-02-03 00:29:00,
2013-02-02 16:34:00,42.9,39.9,30.28,WSW,250,4.0,4.0,89,0.00,,,0.00,21,Wunderground v.1.15,2013-02-03 00:34:00,
2013-02-02 16:39:00,42.9,39.9,30.28,WSW,257,2.0,5.0,89,0.00,,,0.00,18,Wunderground v.1.15,2013-02-03 00:39:00,
2013-02-02 16:44:00,42.9,39.9,30.28,WSW,257,2.0,6.0,89,0.00,,,0.00,18,Wunderground v.1.15,2013-02-03 00:44:00,
2013-02-02 16:49:00,42.8,40.1,30.28,South,182,2.0,6.0,90,0.00,,,0.00,14,Wunderground v.1.15,2013-02-03 00:49:00,
2013-02-02 16:54:00,42.8,40.1,30.28,SSW,209,2.0,4.0,90,0.00,,,0.00,11,Wunderground v.1.15,2013-02-03 00:54:00,
2013-02-02 16:59:00,42.7,40.0,30.28,SSE,162,1.0,4.0,90,0.00,,,0.00,7,Wunderground v.1.15,2013-02-03 00:59:00,
2013-02-02 17:04:00,42.7,40.0,30.28,West,262,4.0,8.0,90,0.00,,,0.00,5,Wunderground v.1.15,2013-02-03 01:04:00,
2013-02-02 17:09:00,42.5,39.8,30.28,SW,231,4.0,8.0,90,0.00,,,0.00,0,Wunderground v.1.15,2013-02-03 01:09:00,
2013-02-02 17:14:00,42.4,39.7,30.28,WSW,246,5.0,7.0,90,0.00,,,0.00,0,Wunderground v.1.15,2013-02-03 01:14:00,
2013-02-02 17:19:00,42.2,39.5,30.28,WSW,254,3.0,7.0,90,0.00,,,0.00,0,Wunderground v.1.15,2013-02-03 01:19:00,
2013-02-02 17:24:00,42.1,39.4,30.28,South,190,4.0,6.0,90,0.00,,,0.00,0,Wunderground v.1.15,2013-02-03 01:24:00,
2013-02-02 17:29:00,42.0,39.6,30.28,West,265,6.0,7.0,91,0.00,,,0.00,0,Wunderground v.1.15,2013-02-03 01:29:00,
2013-02-02 17:34:00,41.8,39.4,30.28,WSW,257,5.0,7.0,91,0.00,,,0.00,0,Wunderground v.1.15,2013-02-03 01:34:00,
2013-02-02 17:39:00,41.6,39.2,30.28,SW,233,5.0,8.0,91,0.00,,,0.00,0,Wunderground v.1.15,2013-02-03 01:39:00,
2013-02-02 17:44:00,41.6,39.2,30.28,SW,222,2.0,6.0,91,0.00,,,0.00,0,Wunderground v.1.15,2013-02-03 01:44:00,
2013-02-02 17:49:00,41.5,39.1,30.28,SW,222,1.0,6.0,91,0.00,,,0.00,0,Wunderground v.1.15,2013-02-03 01:49:00,
2013-02-02 17:54:00,41.5,39.1,30.28,SW,221,1.0,2.0,91,0.00,,,0.00,0,Wunderground v.1.15,2013-02-03 01:54:00,
2013-02-02 17:59:00,41.4,39.0,30.28,SSW,208,2.0,3.0,91,0.00,,,0.00,0,Wunderground v.1.15,2013-02-03 01:59:00,
2013-02-02 18:04:00,41.3,38.9,30.28,South,177,1.0,3.0,91,0.00,,,0.00,0,Wunderground v.1.15,2013-02-03 02:04:00,
2013-02-02 18:09:00,41.3,39.2,30.28,South,177,0.0,3.0,92,0.00,,,0.00,0,Wunderground v.1.15,2013-02-03 02:09:00,
2013-02-02 18:14:00,41.3,39.2,30.29,South,177,0.0,2.0,92,0.00,,,0.00,0,Wunderground v.1.15,2013-02-03 02:14:00,
2013-02-02 18:19:00,41.3,39.2,30.28,South,177,2.0,2.0,92,0.00,,,0.00,0,Wunderground v.1.15,2013-02-03 02:19:00,
2013-02-02 18:24:00,41.3,39.2,30.28,South,177,1.0,3.0,92,0.00,,,0.00,0,Wunderground v.1.15,2013-02-03 02:24:00,
2013-02-02 18:29:00,41.3,39.2,30.29,South,177,0.0,3.0,92,0.00,,,0.00,0,Wunderground v.1.15,2013-02-03 02:29:00,
2013-02-02 18:34:00,41.4,39.3,30.29,South,177,0.0,1.0,92,0.00,,,0.00,0,Wunderground v.1.15,2013-02-03 02:34:00,
2013-02-02 18:39:00,41.4,39.3,30.29,South,177,1.0,3.0,92,0.00,,,0.00,0,Wunderground v.1.15,2013-02-03 02:39:00,
2013-02-02 18:44:00,41.4,39.3,30.29,South,177,0.0,1.0,92,0.00,,,0.00,0,Wunderground v.1.15,2013-02-03 02:44:00,
2013-02-02 18:49:00,41.4,39.3,30.29,South,177,0.0,1.0,92,0.00,,,0.00,0,Wunderground v.1.15,2013-02-03 02:49:00,
2013-02-02 18:54:00,41.4,39.3,30.28,South,177,0.0,2.0,92,0.00,,,0.00,0,Wunderground v.1.15,2013-02-03 02:54:00,
2013-02-02 18:59:00,41.4,39.3,30.28,South,177,2.0,3.0,92,0.00,,,0.00,0,Wunderground v.1.15,2013-02-03 02:59:00,
2013-02-02 19:04:00,41.3,39.2,30.29,South,177,2.0,3.0,92,0.00,,,0.00,0,Wunderground v.1.15,2013-02-03 03:04:00,
2013-02-02 19:09:00,41.3,39.2,30.29,South,177,4.0,4.0,92,0.00,,,0.00,0,Wunderground v.1.15,2013-02-03 03:09:00,
2013-02-02 19:14:00,41.2,39.1,30.29,South,172,1.0,3.0,92,0.00,,,0.00,0,Wunderground v.1.15,2013-02-03 03:14:00,
2013-02-02 19:19:00,41.2,39.1,30.29,South,185,2.0,4.0,92,0.00,,,0.00,0,Wunderground v.1.15,2013-02-03 03:19:00,
2013-02-02 19:24:00,41.2,39.1,30.29,SW,227,1.0,4.0,92,0.00,,,0.00,0,Wunderground v.1.15,2013-02-03 03:24:00,
2013-02-02 19:29:00,41.1,39.0,30.29,WSW,257,0.0,4.0,92,0.00,,,0.00,0,Wunderground v.1.15,2013-02-03 03:29:00,
2013-02-02 19:34:00,41.0,38.9,30.29,South,171,0.0,3.0,92,0.00,,,0.00,0,Wunderground v.1.15,2013-02-03 03:34:00,
2013-02-02 19:39:00,40.9,38.8,30.29,SSW,196,3.0,4.0,92,0.00,,,0.00,0,Wunderground v.1.15,2013-02-03 03:39:00,
2013-02-02 19:43:00,40.9,38.8,30.29,WSW,242,1.0,3.0,92,0.00,,,0.00,0,Wunderground v.1.15,2013-02-03 03:43:00,
2013-02-02 19:48:00,40.8,38.7,30.29,WSW,237,2.0,3.0,92,0.00,,,0.00,0,Wunderground v.1.15,2013-02-03 03:48:00,
2013-02-02 19:54:00,40.8,38.7,30.29,WSW,238,1.0,3.0,92,0.00,,,0.00,0,Wunderground v.1.15,2013-02-03 03:54:00,
2013-02-02 19:58:00,40.8,38.7,30.29,WSW,245,3.0,4.0,92,0.00,,,0.00,0,Wunderground v.1.15,2013-02-03 03:58:00,
2013-02-02 20:03:00,40.7,38.6,30.29,WSW,250,2.0,4.0,92,0.00,,,0.00,0,Wunderground v.1.15,2013-02-03 04:03:00,
2013-02-02 20:08:00,40.6,38.5,30.29,WSW,240,3.0,5.0,92,0.00,,,0.00,0,Wunderground v.1.15,2013-02-03 04:08:00,
2013-02-02 20:13:00,40.5,38.4,30.29,WSW,242,3.0,4.0,92,0.00,,,0.00,0,Wunderground v.1.15,2013-02-03 04:13:00,
2013-02-02 20:18:00,40.4,38.5,30.29,WSW,242,2.0,4.0,93,0.00,,,0.00,0,Wunderground v.1.15,2013-02-03 04:18:00,
2013-02-02 20:23:00,40.3,38.2,30.29,SW,236,1.0,4.0,92,0.00,,,0.00,0,Wunderground v.1.15,2013-02-03 04:23:00,
2013-02-02 20:28:00,40.2,38.3,30.29,SW,227,0.0,5.0,93,0.00,,,0.00,0,Wunderground v.1.15,2013-02-03 04:28:00,
2013-02-02 20:33:00,40.2,38.3,30.29,WSW,245,3.0,4.0,93,0.00,,,0.00,0,Wunderground v.1.15,2013-02-03 04:33:00,
2013-02-02 20:38:00,40.1,38.2,30.29,WSW,242,1.0,4.0,93,0.00,,,0.00,0,Wunderground v.1.15,2013-02-03 04:38:00,
2013-02-02 20:43:00,40.0,38.1,30.29,West,262,3.0,6.0,93,0.00,,,0.00,0,Wunderground v.1.15,2013-02-03 04:43:00,
2013-02-02 20:48:00,39.9,38.0,30.30,West,262,0.0,6.0,93,0.00,,,0.00,0,Wunderground v.1.15,2013-02-03 04:48:00,
2013-02-02 20:53:00,39.8,37.9,30.30,West,263,2.0,3.0,93,0.00,,,0.00,0,Wunderground v.1.15,2013-02-03 04:53:00,
2013-02-02 20:58:00,39.8,37.9,30.30,West,265,0.0,3.0,93,0.00,,,0.00,0,Wunderground v.1.15,2013-02-03 04:58:00,
2013-02-02 21:00:00,39.8,37.9,30.30,West,265,0.0,3.0,93,0.00,,,0.00,0,Wunderground v.1.15,2013-02-03 05:00:00,
2013-02-02 21:02:00,39.8,37.9,30.30,West,265,0.0,1.0,93,0.00,,,0.00,0,Wunderground v.1.15,2013-02-03 05:02:00,
2013-02-02 21:07:00,39.7,38.1,30.29,West,265,0.0,1.0,94,0.00,,,0.00,0,Wunderground v.1.15,2013-02-03 05:07:00,
2013-02-02 21:12:00,39.7,38.1,30.29,West,265,1.0,1.0,94,0.00,,,0.00,0,Wunderground v.1.15,2013-02-03 05:12:00,
2013-02-02 21:17:00,39.7,38.1,30.29,WNW,288,0.0,2.0,94,0.00,,,0.00,0,Wunderground v.1.15,2013-02-03 05:17:00,
2013-02-02 21:22:00,39.7,38.1,30.29,WNW,288,0.0,1.0,94,0.00,,,0.00,0,Wunderground v.1.15,2013-02-03 05:22:00,
2013-02-02 21:27:00,39.7,38.1,30.28,WNW,288,0.0,1.0,94,0.00,,,0.00,0,Wunderground v.1.15,2013-02-03 05:27:00,
2013-02-02 21:32:00,39.8,38.2,30.28,SW,215,0.0,1.0,94,0.00,,,0.00,0,Wunderground v.1.15,2013-02-03 05:32:00,
2013-02-02 21:37:00,39.8,38.2,30.29,SW,223,4.0,4.0,94,0.00,,,0.00,0,Wunderground v.1.15,2013-02-03 05:37:00,
2013-02-02 21:42:00,39.8,38.2,30.29,SW,223,2.0,2.0,94,0.00,,,0.00,0,Wunderground v.1.15,2013-02-03 05:42:00,
2013-02-02 21:47:00,39.9,38.3,30.30,SW,223,1.0,3.0,94,0.00,,,0.00,0,Wunderground v.1.15,2013-02-03 05:47:00,
2013-02-02 21:52:00,40.0,38.4,30.29,SW,223,1.0,3.0,94,0.00,,,0.00,0,Wunderground v.1.15,2013-02-03 05:52:00,
2013-02-02 21:57:00,40.0,38.4,30.29,SW,223,0.0,3.0,94,0.00,,,0.00,0,Wunderground v.1.15,2013-02-03 05:57:00,
2013-02-02 22:02:00,40.1,38.5,30.29,SW,223,0.0,1.0,94,0.00,,,0.00,0,Wunderground v.1.15,2013-02-03 06:02:00,
2013-02-02 22:07:00,40.0,38.4,30.30,SW,223,1.0,2.0,94,0.00,,,0.00,0,Wunderground v.1.15,2013-02-03 06:07:00,
2013-02-02 22:12:00,40.1,38.5,30.29,SW,217,4.0,4.0,94,0.00,,,0.00,0,Wunderground v.1.15,2013-02-03 06:12:00,
2013-02-02 22:17:00,40.1,38.5,30.29,SW,226,1.0,4.0,94,0.00,,,0.00,0,Wunderground v.1.15,2013-02-03 06:17:00,
2013-02-02 22:22:00,40.1,38.5,30.29,West,269,5.0,5.0,94,0.00,,,0.00,0,Wunderground v.1.15,2013-02-03 06:22:00,
2013-02-02 22:27:00,40.1,38.5,30.30,WSW,257,2.0,7.0,94,0.00,,,0.00,0,Wunderground v.1.15,2013-02-03 06:27:00,
2013-02-02 22:32:00,40.0,38.4,30.30,West,270,4.0,4.0,94,0.00,,,0.00,0,Wunderground v.1.15,2013-02-03 06:32:00,
2013-02-02 22:37:00,39.9,38.3,30.30,West,270,1.0,4.0,94,0.00,,,0.00,0,Wunderground v.1.15,2013-02-03 06:37:00,
2013-02-02 22:42:00,39.9,38.3,30.30,West,270,0.0,2.0,94,0.00,,,0.00,0,Wunderground v.1.15,2013-02-03 06:42:00,
2013-02-02 22:47:00,39.9,38.3,30.30,WNW,302,1.0,4.0,94,0.00,,,0.00,0,Wunderground v.1.15,2013-02-03 06:47:00,
2013-02-02 22:52:00,39.8,38.2,30.30,SW,234,0.0,3.0,94,0.00,,,0.00,0,Wunderground v.1.15,2013-02-03 06:52:00,
2013-02-02 22:57:00,39.8,38.2,30.30,SW,235,0.0,4.0,94,0.00,,,0.00,0,Wunderground v.1.15,2013-02-03 06:57:00,
2013-02-02 23:02:00,39.9,38.3,30.30,SW,235,1.0,2.0,94,0.00,,,0.00,0,Wunderground v.1.15,2013-02-03 07:02:00,
2013-02-02 23:07:00,39.8,38.2,30.30,SSW,205,1.0,3.0,94,0.00,,,0.00,0,Wunderground v.1.15,2013-02-03 07:07:00,
2013-02-02 23:12:00,39.8,38.2,30.30,South,182,1.0,3.0,94,0.00,,,0.00,0,Wunderground v.1.15,2013-02-03 07:12:00,
2013-02-02 23:17:00,39.8,38.2,30.30,South,182,0.0,3.0,94,0.00,,,0.00,0,Wunderground v.1.15,2013-02-03 07:17:00,
2013-02-02 23:22:00,39.8,38.2,30.31,South,182,0.0,1.0,94,0.00,,,0.00,0,Wunderground v.1.15,2013-02-03 07:22:00,
2013-02-02 23:26:00,39.8,38.5,30.31,South,182,0.0,3.0,95,0.00,,,0.00,0,Wunderground v.1.15,2013-02-03 07:26:00,
2013-02-02 23:31:00,39.8,38.5,30.31,South,182,2.0,2.0,95,0.00,,,0.00,0,Wunderground v.1.15,2013-02-03 07:31:00,
2013-02-02 23:36:00,39.8,38.5,30.32,South,182,0.0,2.0,95,0.00,,,0.00,0,Wunderground v.1.15,2013-02-03 07:36:00,
2013-02-02 23:41:00,39.8,38.5,30.32,South,183,0.0,1.0,95,0.00,,,0.00,0,Wunderground v.1.15,2013-02-03 07:41:00,
2013-02-02 23:46:00,39.9,38.6,30.32,South,183,0.0,1.0,95,0.00,,,0.00,0,Wunderground v.1.15,2013-02-03 07:46:00,
2013-02-02 23:51:00,40.0,38.7,30.33,South,190,2.0,2.0,95,0.00,,,0.00,0,Wunderground v.1.15,2013-02-03 07:51:00,
2013-02-02 23:56:00,40.0,38.7,30.32,WSW,245,2.0,5.0,95,0.00,,,0.00,0,Wunderground v.1.15,2013-02-03 07:56:00,